Tracking 19827 objects as of 21-Aug-2019
HD Live streaming from Space Station
objects crossing your sky now

FENGYUN 1C DEB

Track FENGYUN 1C DEB now!
10-day predictions


NORAD ID: 36180
Int'l Code: 1999-025DTD
Perigee: 688.2 km
Apogee: 1,021.1 km
Inclination: 98.4 °
Period: 101.9 minutes
Semi major axis: 7225 km
RCS: 0.0053 m2 (small)
Launch date: May 10, 1999
Source: People's Republic of China (PRC)
Launch site: Taiyaun Space Center, China (TSC)

Note: This is SATELLITE DEBRIS
aabbcc
Your satellite tracking list
Your tracking list is empty




NASA's NSSDC Master Catalog

Two Line Element Set (TLE):
1 36180U 99025DTD 19229.15303933  .00000235  00000-0  11482-3 0  9992
2 36180  98.4478   4.6099 0230392 202.6300 156.4587 14.13474371595820
Source of the keplerian elements: AFSPC